Regional Weather Roundup
Issued by NWS

Home | Current Version | Previous Version | Text Only | Print | Product List | Glossary Off
Versions: 1 2 3 4 5 6 7 8 9 10 11 12 13 14 15 16 17 18 19 20 21 22 23 24 25 26 27 28 29 30 31 32 33 34 35 36 37 38 39 40 41 42 43 44 45 46 47 48 49 50

000
ASUS43 KFSD 021210
RWRSD

WEATHER ROUNDUP FOR SOUTH DAKOTA
NATIONAL WEATHER SERVICE SIOUX FALLS SD
600 AM CST FRI DEC 02 2016

NOTE: "FAIR" INDICATES FEW OR NO CLOUDS BELOW 12,000 FEET WITH NO
SIGNIFICANT WEATHER AND/OR OBSTRUCTIONS TO VISIBILITY.


SDZ001>005-009-010-012>017-021300-
NORTHWEST AND NORTH CENTRAL SOUTH DAKOTA

CITY           SKY/WX    TMP DP  RH WIND       PRES   REMARKS
BUFFALO          N/A     22  21  96 W3        30.04R
FAITH            N/A     25  25 100 S5        30.13S WCI  19
MOBRIDGE       CLOUDY    27  23  85 CALM      30.15R
$$

SDZ012>016-024>037-041>051-057-063-072>074-021300-
SOUTHWEST AND SOUTH CENTRAL SOUTH DAKOTA

CITY           SKY/WX    TMP DP  RH WIND       PRES   REMARKS
RAPID CTY ARPT MOCLDY    23  19  85 N3        30.11R
PIERRE         CLOUDY    28  26  92 CALM      30.17R
CUSTER         CLOUDY    22  16  78 W6        30.05R WCI  14
ELLSWORTH AFB  MOCLDY    26  20  79 W3        30.10R
PHILIP         CLOUDY    20  19  96 W3        30.17R
PINE RIDGE     MOCLDY    11   9  92 CALM      30.13R
SPEARFISH      FAIR      27  19  74 W6        30.10R WCI  20
WINNER         CLOUDY    29  26  89 W5        30.18R WCI  24
$$

SDZ004>011-016>023-039-040-021300-
NORTHEAST SOUTH DAKOTA

CITY           SKY/WX    TMP DP  RH WIND       PRES   REMARKS
ABERDEEN       CLOUDY    28  22  78 N6        30.20R WCI  22
WATERTOWN      CLOUDY    26  23  88 N3        30.15R
BROOKINGS      CLOUDY    26  23  88 N3        30.16R
SISSETON         N/A     28  21  75 N9        30.18R WCI  19
$$

SDZ017-020-022-023-036>040-048>070-021300-
SOUTHEAST SOUTH DAKOTA

CITY           SKY/WX    TMP DP  RH WIND       PRES   REMARKS
SIOUX FALLS    CLOUDY    31  30  96 NE7       30.17R WCI  24
HURON          CLOUDY    29  28  96 N5        30.20R WCI  24
CHAMBERLAIN    CLOUDY    31  30  98 W3        30.18R
MITCHELL       CLOUDY    31  30  96 N6        30.20R WCI  25
YANKTON        CLOUDY    32  28  86 W7        30.18R WCI  26
$$

ABBREVIATIONS USED IN REMARKS
   TC - TEMPERATURE IN CELSIUS
  WCI - WIND CHILL INDEX
   HX - HEAT INDEX
  VSB - VISIBILITY





USA.gov is the U.S. government's official web portal to all federal, state and local government web resources and services.